Regional Weather Roundup
Issued by NWS Little Rock, AR

Home | Current Version | Previous Version | Text Only | Print | Product List | Glossary Off
Versions: 1 2 3 4 5 6 7 8 9 10 11 12 13 14 15 16 17 18 19 20 21 22 23 24 25 26 27 28 29 30 31 32 33 34 35 36 37 38 39 40 41 42 43 44 45 46 47 48 49 50

453
ASUS44 KLZK 280705
RWRLZK

WEATHER ROUNDUP FOR ARKANSAS
NATIONAL WEATHER SERVICE LITTLE ROCK AR
200 AM CDT TUE MAR 28 2017

NOTE: "FAIR" INDICATES FEW OR NO CLOUDS BELOW 12,000 FEET WITH NO
SIGNIFICANT WEATHER AND/OR OBSTRUCTIONS TO VISIBILITY.

ARZ001-003-010-029-280800-
NORTHWEST ARKANSAS

CITY           SKY/WX    TMP DP  RH WIND       PRES   REMARKS
FAYETTEVILLE   CLOUDY    52  48  86 CALM      29.97S
FORT SMITH     CLEAR     49  45  86 CALM      29.96F
HARRISON       CLOUDY    53  48  83 NW3       29.98R
BENTONVILLE    CLOUDY    52  46  82 NE3       29.99S
ROGERS         CLOUDY    51  48  89 CALM      29.99R
SILOAM SPGS    CLOUDY    52  45  76 NE3       29.98S
HIGHFILL       CLOUDY    52  48  86 E5        29.98R
$$

ARZ004-005-016-280800-
NORTH CENTRAL ARKANSAS

CITY           SKY/WX    TMP DP  RH WIND       PRES   REMARKS
BATESVILLE     CLEAR     55  50  82 NW5       29.95S
FLIPPIN        CLOUDY    54  46  76 CALM      29.96R
MTN HOME       CLOUDY    52  50  93 N3        29.96R
$$

ARZ040-041-280800-
WEST CENTRAL ARKANSAS

CITY           SKY/WX    TMP DP  RH WIND       PRES   REMARKS
MENA           CLEAR     50  48  93 CALM      29.94S
MOUNT IDA      CLEAR     51  49  92 CALM      29.92R FOG
$$

ARZ009-017-025-026-028-280800-
NORTHEAST ARKANSAS

CITY           SKY/WX    TMP DP  RH WIND       PRES   REMARKS
CORNING        CLOUDY    57  55  94 NE3       29.94R
JONESBORO      PTCLDY    58  54  86 N7        29.92R
NEWPORT        CLEAR     55  53  93 NW8       29.94R
WALNUT RIDGE   CLEAR     55  48  76 NW7       29.93S
BLYTHEVILLE    CLOUDY    57  56  96 NE15      29.93R
$$

ARZ022-023-033-042-044-280800-
CENTRAL ARKANSAS

CITY           SKY/WX    TMP DP  RH WIND       PRES   REMARKS
LITTLE ROCK    PTCLDY    57  55  93 N7        29.93S
N LITTLE ROCK    N/A     58  54  87 N6        29.93R
JACKSONVILLE   CLEAR     59  54  83 CALM      29.93R
CONWAY           N/A     54  52  94 CALM      29.94R
SEARCY         CLEAR     58  54  86 N6        29.95R
HOT SPRINGS    CLEAR     55  53  93 W3        29.94R
RUSSELLVILLE   MOCLDY    56  52  86 NW3       29.95R
CLINTON        FAIR      52  52 100 CALM      29.96R
$$

ARZ036-280800-
EAST ARKANSAS

CITY           SKY/WX    TMP DP  RH WIND       PRES   REMARKS
WEST MEMPHIS   MOCLDY    59  59 100 CALM      29.90R
$$

ARZ050-053-066-070-073-280800-
SOUTHWEST ARKANSAS

CITY           SKY/WX    TMP DP  RH WIND       PRES   REMARKS
ARKADELPHIA    FAIR      59  55  87 NW3       29.93S
CAMDEN         CLEAR     57  54  88 MISG      29.92S
TEXARKANA      PTCLDY    59  56  89 E3        29.91S
EL DORADO      PTCLDY    62  60  93 N3        29.92R
DE QUEEN       PTCLDY    54  53  97 CALM      29.90S
$$

ARZ056-057-069-280800-
SOUTHEAST ARKANSAS

CITY           SKY/WX    TMP DP  RH WIND       PRES   REMARKS
PINE BLUFF     CLEAR     61  56  83 CALM      29.92S
STUTTGART      PTCLDY    59  48  67 NW8       29.93R
MONTICELLO     MOCLDY    65  58  78 CALM      29.91S

$$






USA.gov is the U.S. government's official web portal to all federal, state and local government web resources and services.